Location: Moscow
(55.7500°N, 37.5830°E)
Time: 13:00:15
(UTC+03:00)

S-56A Canister/Altair - Pass Details

Date: 06 December 2021
Orbit: 633 x 2499 km, 38.9° (Epoch: 17 January)

Event Time Altitude Azimuth Distance (km) Brightness Sun altitude
Rises 03:14:55 0° 253° (WSW) 4,408 - -43.9°
Reaches altitude 10° 03:19:35 10° 233° (SW) 3,030 - -43.3°
Maximum altitude 03:23:27 15° 200° (SSW) 2,338 - -42.8°
Drops below altitude 10° 03:26:42 10° 165° (SSE) 2,461 - -42.4°
Sets 03:29:54 0° 142° (SE) 3,179 - -42.0°
